This demonstration page uses our WeatherBlox Daily Observations layout. Learn more.

Left ArrowRight Arrow

41.55636, -103.73856

Hourly Observations for December 1, 2017

Temp ( °F °C ) Dew Point ( °F °C ) Humidity (%) Winds ( mph kmh ) Pressure ( in mb ) Visibility ( mi km ) Precip ( " mm )
12:53 am 00:53 Clear 28 -2.2 19 -7.2 69 69 N N/A 29.98 1015 10 16 N/A
1:53 am 01:53 Clear 26 -3.3 18 -7.8 71 71 NNW 6 9 29.98 1015 10 16 N/A
2:53 am 02:53 Clear 22 -5.6 17 -8.3 82 82 NW 5 7 29.98 1015 10 16 N/A
3:53 am 03:53 Clear 25 -3.9 19 -7.2 78 78 NNW 6 9 29.98 1015 10 16 N/A
4:53 am 04:53 Clear 27 -2.8 20 -6.7 75 75 N N/A 30.01 1016 10 16 N/A
5:53 am 05:53 Clear 27 -2.8 19 -7.2 72 72 N N/A 30.03 1017 10 16 N/A
6:53 am 06:53 Clear 25 -3.9 20 -6.7 81 81 NW 8 13 30.03 1017 10 16 N/A
7:53 am 07:53 Mostly Sunny 31 -0.6 22 -5.6 69 69 WSW 6 9 30.06 1018 10 16 N/A
8:53 am 08:53 Partly Cloudy 35 1.7 23 -5 61 61 N N/A 30.06 1018 10 16 N/A
9:53 am 09:53 Mostly Cloudy 43 6.1 25 -3.9 49 49 WNW 5 7 30.05 1018 10 16 N/A
10:53 am 10:53 Cloudy 51 10.6 23 -5 33 33 NW 9 15 30.03 1017 10 16 N/A
11:53 am 11:53 Sunny 52 11.1 23 -5 32 32 WNW 7 11 30.04 1017 10 16 N/A
12:53 pm 12:53 Mostly Sunny 55 12.8 24 -4.4 30 30 NW 14 22 30.01 1016 10 16 N/A
1:53 pm 13:53 Mostly Sunny 58 14.4 24 -4.4 27 27 NW 13 20 30.00 1016 10 16 N/A
2:53 pm 14:53 Sunny 56 13.3 23 -5 28 28 NW 8 13 30.03 1017 10 16 N/A
3:53 pm 15:53 Sunny 51 10.6 23 -5 33 33 NW 5 7 30.05 1018 10 16 N/A
4:53 pm 16:53 Clear 40 4.4 19 -7.2 43 43 NE 7 11 30.09 1019 8 13 N/A
5:53 pm 17:53 Clear 39 3.9 17 -8.3 41 41 ESE 3 6 30.12 1020 10 16 N/A
6:53 pm 18:53 Clear 32 undefined 15 -9.4 50 50 E 5 7 30.16 1021 10 16 N/A
7:53 pm 19:53 Clear 29 -1.7 15 -9.4 56 56 N N/A 30.17 1022 10 16 N/A
8:53 pm 20:53 Clear 28 -2.2 14 -10 56 56 E 7 11 30.16 1022 10 16 N/A
9:53 pm 21:53 Clear 26 -3.3 14 -10 60 60 E 7 11 30.15 1021 10 16 N/A
10:53 pm 22:53 Clear 31 -0.6 16 -8.9 54 54 ESE 10 17 30.11 1020 10 16 N/A
11:53 pm 23:53 Clear 31 -0.6 15 -9.4 52 52 E 6 9 30.11 1020 10 16 N/A

Powered by AerisWeather